Flag for Canada Weather past 2 weeks in Kugluktuk, Nunavut, Canada

Now
3 °F

Passing clouds.


Feels Like: 3 °F
Forecast: -4 / 10 °F
Wind: No wind

Location: Coppermine

Current Time: Apr 26, 2015 at 12:50:45 AM

Latest Report: Apr 26, 2015 at 12:00 AM


Visibility: 15 mi

Pressure: 30.43 "Hg

Humidity: 92%

Dew point: 1 °F

Location of KugluktukLocation

Historic Weather in Kugluktuk — Graph

°F

Kugluktuk temperature yesterday

Maximum temperature yesterday: 16 °F (at 4:00 PM)
Minimum temperature yesterday: 3 °F (at 2:00 AM)
Average temperature yesterday: 9 °F

Past Weeks' High & Low Weather Summary

 TemperatureHumidityPressure
High27 °F (Apr 22, 1:00 PM)92% (Apr 10, 11:00 PM)30.56 "Hg (Apr 10, 11:00 PM)
Low-22 °F (Apr 13, 3:00 AM)58% (Apr 22, 12:00 AM)29.39 "Hg (Apr 11, 12:00 PM)
Average3 °F79%30.10 "Hg
* Reported Apr 10 11:00 PM — Apr 25 11:00 PM, Kugluktuk, Weather by CustomWeather, © 2015

Note: Actual official high and low records may vary slightly from our data, if they occured in-between our weather recording intervals... More about our weather records

Advertising

Kugluktuk weather history for previous 24 hours

 ConditionsComfort  
Time TempWeatherWind HumidityBarometerVisibility
11:00 PM
Sat, Apr 25
5 °FPassing clouds.5 mph85%30.43 "Hg15 mi
10:00 PM9 °FPassing clouds.12 mph92%30.43 "Hg15 mi
9:00 PM10 °FPartly sunny.9 mph85%30.44 "Hg15 mi
8:00 PM10 °FPartly sunny.12 mph85%30.44 "Hg15 mi
7:00 PM14 °FPartly sunny.14 mph79%30.45 "Hg15 mi
6:00 PM14 °FPartly sunny.14 mph85%30.45 "Hg15 mi
5:00 PM16 °FPartly sunny.14 mph79%30.46 "Hg15 mi
4:00 PM16 °FScattered clouds.13 mph79%30.47 "Hg15 mi
3:00 PM14 °FScattered clouds.14 mph79%30.48 "Hg15 mi
2:00 PM14 °FLight snow. Partly sunny.10 mph79%30.49 "Hg15 mi
1:00 PM14 °FLight snow. Partly sunny.13 mph79%30.49 "Hg15 mi
12:00 PM12 °FLight snow. Partly sunny.7 mph79%30.50 "Hg15 mi
11:00 AM12 °FLight snow. Partly sunny.6 mph73%30.50 "Hg15 mi
10:00 AM10 °FLight snow. Partly sunny.6 mph72%30.51 "Hg15 mi
9:00 AM7 °FPassing clouds.7 mph78%30.51 "Hg15 mi
8:00 AM7 °FPassing clouds.5 mph78%30.51 "Hg15 mi
7:00 AM5 °FPassing clouds.7 mph72%30.50 "Hg15 mi
6:00 AM3 °FPassing clouds.No wind85%30.50 "Hg15 mi
5:00 AM7 °FPartly cloudy.6 mph78%30.50 "Hg15 mi
4:00 AM3 °FPassing clouds.3 mph78%30.50 "Hg15 mi
3:00 AM5 °FPassing clouds.6 mph78%30.50 "Hg15 mi
2:00 AM3 °FPassing clouds.8 mph78%30.51 "Hg15 mi
1:00 AM5 °FPassing clouds.12 mph72%30.50 "Hg15 mi
12:00 AM5 °FPassing clouds.10 mph78%30.51 "Hg15 mi
Weather by CustomWeather, © 2015

See weather overviewHow to use our weather pages